User: anonymous   Login
Location: Unspecified
(0.0000°N, 0.0000°E)
Time: 00:33:21
(UTC+00:00)
Language:

Skynet 4A - Orbit

View from above orbital plane
View from above orbital plane
View from above satellite
View from above satellite

Ground track
Ground track

The orbit data is extracted from the following two-line orbital elements,

1 20401U 90001A   21332.58446806 -.00000060  00000-0  00000+0 0  9995
2 20401  13.1362 359.6037 0011640 282.8834  91.8718  0.98995859112421
Epoch (UTC): 28 November 2021 14:01:38
Eccentricity: 0.0011640
inclination: 13.1362°
perigee height: 36098 km
apogee height: 36197 km
right ascension of ascending node: 359.6037°
argument of perigee: 282.8834°
revolutions per day: 0.98995859
mean anomaly at epoch: 91.8718°
orbit number at epoch: 11242

The dashed part of the orbit path shows where the satellite is in the earth's shadow,  

DLR